• In Hungary
  • List of Countries
  • For 7 days
  • Water Temperature
  • Satellite Maps
  • Weather Map
  • News
  • Weather Widgets
  • user-avatar
    Login

    Hourly Weather Stanivtsi

    Today, 14 December, Thursday

    Time Temperature Precipitation Wind Pressure Humidity
    00:00 +1°C° 0 mm 1 mps 724 mmHg 93%
    01:00 +1°C° 0 mm 1 mps 723 mmHg 93%
    02:00 +1°C° 0 mm 0 mps 723 mmHg 92%
    03:00 +1°C° 0 mm 1 mps 722 mmHg 93%
    04:00 +1°C° 0 mm 1 mps 722 mmHg 93%
    05:00 +1°C° 0 mm 1 mps 722 mmHg 93%
    06:00 +1°C° 0 mm 1 mps 721 mmHg 93%
    07:00 +1°C° 0 mm 1 mps 721 mmHg 93%
    08:00 -1°C° 0 mm 2 mps 721 mmHg 93%
    09:00 +1°C° 0 mm 2 mps 721 mmHg 85%
    10:00 +2°C° 0 mm 3 mps 721 mmHg 78%
    11:00 +3°C° 0 mm 3 mps 721 mmHg 71%
    12:00 +4°C° 0 mm 3 mps 720 mmHg 67%
    13:00 +5°C° 0 mm 3 mps 720 mmHg 64%
    14:00 +7°C° 0 mm 3 mps 719 mmHg 60%
    15:00 +5°C° 0 mm 3 mps 719 mmHg 64%
    16:00 +4°C° 0 mm 3 mps 719 mmHg 67%
    17:00 +3°C° 0 mm 3 mps 719 mmHg 71%
    18:00 +3°C° 0 mm 3 mps 719 mmHg 71%
    19:00 +3°C° 0 mm 3 mps 719 mmHg 71%
    20:00 +3°C° 0 mm 3 mps 719 mmHg 71%
    21:00 +3°C° 0 mm 3 mps 719 mmHg 73%
    22:00 +4°C° 0 mm 2 mps 719 mmHg 74%
    23:00 +3°C° 0 mm 2 mps 719 mmHg 76%

    Tomorrow, 15 December, Friday

    Time Temperature Precipitation Wind Pressure Humidity
    00:00 +3°C° 0 mm 2 mps 719 mmHg 77%
    01:00 +3°C° 0 mm 2 mps 719 mmHg 78%
    02:00 +3°C° 0 mm 2 mps 719 mmHg 80%
    03:00 +4°C° 0.2 mm 1 mps 719 mmHg 81%
    04:00 +4°C° 0.2 mm 1 mps 719 mmHg 82%
    05:00 +3°C° 0.2 mm 1 mps 718 mmHg 83%
    06:00 +4°C° 0 mm 1 mps 718 mmHg 83%
    07:00 +3°C° 0 mm 2 mps 718 mmHg 83%
    08:00 +3°C° 0 mm 2 mps 718 mmHg 83%
    09:00 +4°C° 0 mm 2 mps 718 mmHg 79%
    10:00 +4°C° 0 mm 3 mps 719 mmHg 74%
    11:00 +7°C° 0 mm 3 mps 719 mmHg 70%
    12:00 +8°C° 0 mm 3 mps 718 mmHg 68%
    13:00 +8°C° 0 mm 3 mps 718 mmHg 65%
    14:00 +9°C° 0 mm 3 mps 718 mmHg 63%
    15:00 +8°C° 0 mm 4 mps 718 mmHg 65%
    16:00 +7°C° 0 mm 4 mps 718 mmHg 68%
    17:00 +7°C° 0 mm 4 mps 718 mmHg 71%
    18:00 +6°C° 0 mm 4 mps 718 mmHg 72%
    19:00 +6°C° 0 mm 4 mps 718 mmHg 73%
    20:00 +6°C° 0 mm 4 mps 718 mmHg 75%
    21:00 +6°C° 0 mm 4 mps 718 mmHg 75%
    22:00 +6°C° 0 mm 4 mps 718 mmHg 76%
    23:00 +5°C° 0 mm 3 mps 718 mmHg 77%

    Day after tomorrow, 16 December, Saturday

    Time Temperature Precipitation Wind Pressure Humidity
    00:00 +5°C° 0.5 mm 3 mps 717 mmHg 80%
    01:00 +6°C° 0.5 mm 2 mps 717 mmHg 82%
    02:00 +7°C° 0.5 mm 1 mps 716 mmHg 85%
    03:00 +5°C° 0.5 mm 2 mps 716 mmHg 87%
    04:00 +5°C° 0.5 mm 2 mps 715 mmHg 88%
    05:00 +5°C° 0.5 mm 2 mps 714 mmHg 90%
    06:00 +5°C° 0.1 mm 2 mps 714 mmHg 90%
    07:00 +4°C° 0.1 mm 2 mps 714 mmHg 91%
    08:00 +4°C° 0.1 mm 2 mps 714 mmHg 91%
    09:00 +4°C° 0.1 mm 2 mps 714 mmHg 89%
    10:00 +4°C° 0.1 mm 3 mps 714 mmHg 86%
    11:00 +4°C° 0.1 mm 3 mps 715 mmHg 83%
    12:00 +4°C° 0 mm 3 mps 715 mmHg 82%
    13:00 +4°C° 0 mm 3 mps 715 mmHg 81%
    14:00 +4°C° 0 mm 3 mps 716 mmHg 80%
    15:00 +4°C° 0 mm 3 mps 716 mmHg 83%
    16:00 +4°C° 0 mm 2 mps 717 mmHg 85%
    17:00 +3°C° 0 mm 2 mps 717 mmHg 88%
    18:00 +3°C° 0 mm 2 mps 718 mmHg 89%
    19:00 +3°C° 0 mm 2 mps 718 mmHg 89%
    20:00 +1°C° 0 mm 3 mps 719 mmHg 90%
    21:00 +1°C° 0.1 mm 3 mps 719 mmHg 90%
    22:00 +1°C° 0.1 mm 3 mps 720 mmHg 90%
    23:00 +1°C° 0.1 mm 3 mps 720 mmHg 90%

    17 December, Sunday

    Time Temperature Precipitation Wind Pressure Humidity
    00:00 +1°C° 0.1 mm 3 mps 720 mmHg 90%
    01:00 0°C° 0.1 mm 4 mps 720 mmHg 89%
    02:00 0°C° 0.1 mm 4 mps 720 mmHg 89%
    03:00 0°C° 0.3 mm 4 mps 720 mmHg 89%
    04:00 -1°C° 0.3 mm 4 mps 720 mmHg 89%
    05:00 -1°C° 0.3 mm 5 mps 720 mmHg 88%
    06:00 -1°C° 0.7 mm 5 mps 720 mmHg 89%
    07:00 -1°C° 0.7 mm 5 mps 720 mmHg 89%
    08:00 -3°C° 0.7 mm 6 mps 720 mmHg 89%
    09:00 -3°C° 0.8 mm 6 mps 721 mmHg 89%
    10:00 -3°C° 0.8 mm 6 mps 721 mmHg 89%
    11:00 -3°C° 0.8 mm 7 mps 721 mmHg 90%
    12:00 -3°C° 0.5 mm 7 mps 721 mmHg 89%
    13:00 -3°C° 0.5 mm 7 mps 721 mmHg 88%
    14:00 -3°C° 0.5 mm 7 mps 721 mmHg 88%
    15:00 -3°C° 0.3 mm 7 mps 721 mmHg 87%
    16:00 -3°C° 0.3 mm 7 mps 722 mmHg 86%
    17:00 -4°C° 0.3 mm 7 mps 723 mmHg 85%
    18:00 -4°C° 0 mm 6 mps 723 mmHg 85%
    19:00 -4°C° 0 mm 6 mps 724 mmHg 85%
    20:00 -4°C° 0 mm 6 mps 725 mmHg 85%
    21:00 -5°C° 0 mm 5 mps 725 mmHg 84%
    22:00 -5°C° 0 mm 5 mps 726 mmHg 84%
    23:00 -5°C° 0 mm 4 mps 726 mmHg 84%

    18 December, Monday

    Time Temperature Precipitation Wind Pressure Humidity
    00:00 -5°C° 0 mm 4 mps 726 mmHg 84%
    01:00 -7°C° 0 mm 4 mps 727 mmHg 84%
    02:00 -7°C° 0 mm 4 mps 727 mmHg 84%
    03:00 -6°C° 0 mm 3 mps 727 mmHg 84%
    04:00 -6°C° 0 mm 3 mps 728 mmHg 84%
    05:00 -7°C° 0 mm 3 mps 728 mmHg 83%
    06:00 -7°C° 0 mm 3 mps 728 mmHg 83%
    07:00 -7°C° 0 mm 3 mps 728 mmHg 82%
    08:00 -7°C° 0 mm 3 mps 729 mmHg 81%
    09:00 -6°C° 0 mm 3 mps 729 mmHg 78%
    10:00 -4°C° 0 mm 3 mps 729 mmHg 75%
    11:00 -2°C° 0 mm 3 mps 729 mmHg 72%
    12:00 -2°C° 0 mm 2 mps 729 mmHg 72%
    13:00 -1°C° 0 mm 2 mps 728 mmHg 72%
    14:00 -1°C° 0 mm 2 mps 728 mmHg 72%
    15:00 -2°C° 0 mm 2 mps 728 mmHg 74%
    16:00 -3°C° 0 mm 2 mps 728 mmHg 76%
    17:00 -4°C° 0 mm 2 mps 728 mmHg 78%
    18:00 -4°C° 0 mm 2 mps 728 mmHg 79%
    19:00 -5°C° 0 mm 2 mps 728 mmHg 80%
    20:00 -5°C° 0 mm 2 mps 729 mmHg 80%
    21:00 -5°C° 0 mm 2 mps 729 mmHg 80%
    22:00 -5°C° 0 mm 2 mps 729 mmHg 80%
    23:00 -5°C° 0 mm 2 mps 729 mmHg 79%

    19 December, Tuesday

    Time Temperature Precipitation Wind Pressure Humidity
    00:00 -3°C° 0 mm 1 mps 729 mmHg 79%
    01:00 -3°C° 0 mm 1 mps 729 mmHg 79%
    02:00 -3°C° 0 mm 1 mps 729 mmHg 79%
    03:00 -3°C° 0 mm 1 mps 729 mmHg 79%
    04:00 -3°C° 0 mm 1 mps 729 mmHg 80%
    05:00 -3°C° 0 mm 1 mps 730 mmHg 80%
    06:00 -3°C° 0 mm 1 mps 730 mmHg 81%
    07:00 -3°C° 0 mm 1 mps 730 mmHg 81%
    08:00 -3°C° 0 mm 1 mps 731 mmHg 82%
    09:00 -2°C° 0.1 mm 1 mps 731 mmHg 81%
    10:00 -1°C° 0.1 mm 1 mps 731 mmHg 80%
    11:00 -1°C° 0.1 mm 1 mps 732 mmHg 80%
    12:00 0°C° 0.1 mm 1 mps 732 mmHg 82%
    13:00 0°C° 0.1 mm 1 mps 732 mmHg 84%
    14:00 0°C° 0.1 mm 1 mps 732 mmHg 86%
    15:00 -3°C° 0.1 mm 2 mps 732 mmHg 88%
    16:00 -3°C° 0.1 mm 2 mps 733 mmHg 90%
    17:00 -4°C° 0.1 mm 2 mps 733 mmHg 93%
    18:00 -4°C° 0.1 mm 2 mps 733 mmHg 93%
    19:00 -4°C° 0.1 mm 2 mps 734 mmHg 93%
    20:00 -4°C° 0.1 mm 2 mps 734 mmHg 93%
    21:00 -5°C° 0.1 mm 2 mps 734 mmHg 93%
    22:00 -5°C° 0.1 mm 2 mps 735 mmHg 93%
    23:00 -5°C° 0.1 mm 2 mps 735 mmHg 93%
    Show more